Regional Weather Roundup
Issued by NWS Charleston, WV

Home | Current Version | Previous Version | Text Only | Print | Product List | Glossary Off
Versions: 1 2 3 4 5 6 7 8 9 10 11 12 13 14 15 16 17 18 19 20 21 22 23 24 25 26 27 28 29 30 31 32 33 34 35 36 37 38 39 40 41 42 43 44 45 46 47 48 49 50

790
ASUS41 KRLX 182310
RWRRLX
West Virginia Regional Weather Roundup
National Weather Service Charleston WV
700 PM EDT FRI AUG 18 2017

Note: "fair" indicates few or no clouds below 12,000 feet with no
significant weather and/or obstructions to visibility.

WVZ003-190000-
Northern Panhandle of West Virginia

CITY           SKY/WX    TMP DP  RH WIND       PRES   REMARKS
WHEELING       SUNNY     80  61  52 W8G17     29.86R
$$

WVZ009-190000-
Northwest West Virginia

CITY           SKY/WX    TMP DP  RH WIND       PRES   REMARKS
PARKERSBURG    SUNNY     82  64  54 W8        29.90R
$$

WVZ006-190000-
Western West Virginia

CITY           SKY/WX    TMP DP  RH WIND       PRES   REMARKS
HUNTINGTON     MOSUNNY   84  64  50 SW9       29.90R
$$

WVZ015-190000-
West Central West Virginia

CITY           SKY/WX    TMP DP  RH WIND       PRES   REMARKS
CHARLESTON     MOSUNNY   83  67  58 W5        29.89R
$$

WVZ022-031-190000-
North Central West Virginia

CITY           SKY/WX    TMP DP  RH WIND       PRES   REMARKS
CLARKSBURG     MOSUNNY   82  67  60 W12       29.87R
MORGANTOWN     MOSUNNY   82  65  56 W10G18    29.87R
$$

WVZ025-035-042-045-190000-
Southern West Virginia

CITY           SKY/WX    TMP DP  RH WIND       PRES   REMARKS
BECKLEY        MOSUNNY   75  68  78 SW7       29.99R
LOGAN            N/A     79  72  78 W3        29.95R
BLUEFIELD      CLOUDY    71  64  78 W8        30.03R
LEWISBURG      CLOUDY    74  66  75 CALM      29.98R
$$

WVZ047-190000-
Northern Mountains of West Virginia

CITY           SKY/WX    TMP DP  RH WIND       PRES   REMARKS
ELKINS         PTSUNNY   79  67  66 W3        29.92S
$$

WVZ052-190000-
Eastern Panhandle of West Virginia

CITY           SKY/WX    TMP DP  RH WIND       PRES   REMARKS
MARTINSBURG    CLOUDY    83  72  69 SW7       29.79R
PETERSBURG     SUNNY     85  71  63 W5        29.84R
$$




USA.gov is the U.S. government's official web portal to all federal, state and local government web resources and services.